sat.trackr.live / text

‹ back to catalog

STARLINK-36624

NORAD 67636 · 2026-020V

PAYLOAD ACTIVE UNKNOWN

§ Identity

Operator
Country
US
Launch date
2026-01-30
Launch site
AFETR
Launch vehicle
Mass (kg)
RCS (m²)

Purposes: comms

External: N2YO · Heavens-Above · Gunter

§ Orbital elements

Epoch: 2026-05-25T03:57:13.849632Z

Period
94.27 min
Inclination
43.0038°
Eccentricity
0.0001330
Mean motion
15.27603979 rev/d
Perigee alt
482.1 km
Apogee alt
483.9 km
Semi-major
6,861.1 km
B*
7.7760e-4
RAAN
67.5139°
Arg perigee
269.3170°
Mean anomaly
90.7529°
Rev number
1,781

§ Raw data

STARLINK-366241 67636U 26020V   26145.16474363  .00021213  00000+0  77760-3 0  99982 67636  43.0038  67.5139 0001330 269.3170  90.7529 15.27603979 17812

JSON: /api/v1/satellites/67636 · /tle

For live sub-satellite position, see the globe view (requires WebGL).

§ Visibility from observer

Set your observer location to see the next 7 days of passes ≥ 10°. The values pass through the URL so the page stays shareable.

No JS? Fill the form by hand. The geolocation button needs JavaScript.